When you browse on this site, cookies collect data to enhance your experience and personalize the content and advertising you see.
Visit our Privacy Policy to learn more. By continuing to use the site, you agree to this use of cookies and data.
  • En España
  • Lista de países
  • Para 7 días
  • Temperatura del agua
  • El tiempo en el mapa
  • Informadores
  • user-avatar
    Iniciar sesión

    Tiempo cada hora Stepanakert

    Hoy, 4 Abril, Sábado

    Tiempo Temperatura Precipitaciones Viento Presión Humedad
    00:00 +9°C° 0 mm 1 mps 690 mmHg 96%
    01:00 +9°C° 0 mm 1 mps 690 mmHg 96%
    02:00 +9°C° 0 mm 1 mps 690 mmHg 96%
    03:00 +9°C° 0 mm 1 mps 690 mmHg 97%
    04:00 +9°C° 0.3 mm 1 mps 690 mmHg 97%
    05:00 +9°C° 0.3 mm 1 mps 690 mmHg 97%
    06:00 +9°C° 0.3 mm 1 mps 690 mmHg 97%
    07:00 +9°C° 1.2 mm 1 mps 690 mmHg 97%
    08:00 +9°C° 1.2 mm 1 mps 690 mmHg 97%
    09:00 +8°C° 0 mm 2 mps 691 mmHg 97%
    10:00 +8°C° 1.3 mm 2 mps 691 mmHg 96%
    11:00 +8°C° 1.3 mm 2 mps 691 mmHg 95%
    12:00 +8°C° 1.3 mm 2 mps 691 mmHg 94%
    13:00 +7°C° 1.5 mm 2 mps 691 mmHg 95%
    14:00 +7°C° 1.5 mm 2 mps 692 mmHg 95%
    15:00 +7°C° 1.5 mm 2 mps 692 mmHg 96%
    16:00 +7°C° 0.9 mm 2 mps 692 mmHg 96%
    17:00 +8°C° 0.9 mm 1 mps 693 mmHg 96%
    18:00 +7°C° 0.9 mm 1 mps 693 mmHg 97%
    19:00 +7°C° 0.3 mm 1 mps 694 mmHg 97%
    20:00 +7°C° 0.3 mm 1 mps 695 mmHg 97%
    21:00 +6°C° 0.3 mm 0 mps 695 mmHg 97%
    22:00 +7°C° 0 mm 1 mps 695 mmHg 94%
    23:00 +7°C° 0 mm 1 mps 696 mmHg 92%

    Mañana, 5 Abril, Domingo

    Tiempo Temperatura Precipitaciones Viento Presión Humedad
    00:00 +7°C° 0 mm 1 mps 696 mmHg 90%
    01:00 +7°C° 0 mm 1 mps 696 mmHg 88%
    02:00 +7°C° 0 mm 1 mps 696 mmHg 86%
    03:00 +7°C° 0 mm 1 mps 696 mmHg 84%
    04:00 +7°C° 0 mm 1 mps 696 mmHg 82%
    05:00 +7°C° 0 mm 1 mps 696 mmHg 81%
    06:00 +7°C° 0 mm 1 mps 696 mmHg 80%
    07:00 +9°C° 0 mm 1 mps 696 mmHg 76%
    08:00 +10°C° 0 mm 1 mps 697 mmHg 72%
    09:00 +12°C° 0 mm 1 mps 697 mmHg 68%
    10:00 +13°C° 0 mm 1 mps 697 mmHg 67%
    11:00 +14°C° 0 mm 2 mps 696 mmHg 67%
    12:00 +15°C° 0 mm 2 mps 696 mmHg 66%
    13:00 +15°C° 0 mm 2 mps 696 mmHg 67%
    14:00 +15°C° 0 mm 2 mps 695 mmHg 68%
    15:00 +16°C° 0 mm 2 mps 695 mmHg 68%
    16:00 +15°C° 0 mm 2 mps 694 mmHg 74%
    17:00 +14°C° 0 mm 1 mps 694 mmHg 79%
    18:00 +13°C° 0 mm 1 mps 694 mmHg 84%
    19:00 +12°C° 0 mm 1 mps 694 mmHg 85%
    20:00 +11°C° 0 mm 1 mps 694 mmHg 86%
    21:00 +11°C° 0 mm 1 mps 694 mmHg 87%
    22:00 +10°C° 0 mm 1 mps 693 mmHg 85%
    23:00 +10°C° 0 mm 1 mps 693 mmHg 83%

    Pasado mañana, 6 Abril, Lunes

    Tiempo Temperatura Precipitaciones Viento Presión Humedad
    00:00 +10°C° 0 mm 1 mps 692 mmHg 81%
    01:00 +10°C° 0 mm 1 mps 692 mmHg 79%
    02:00 +10°C° 0 mm 1 mps 692 mmHg 77%
    03:00 +9°C° 0 mm 1 mps 692 mmHg 76%
    04:00 +10°C° 0 mm 1 mps 692 mmHg 74%
    05:00 +10°C° 0 mm 1 mps 692 mmHg 73%
    06:00 +10°C° 0 mm 1 mps 692 mmHg 72%
    07:00 +11°C° 0 mm 1 mps 692 mmHg 69%
    08:00 +13°C° 0 mm 1 mps 692 mmHg 67%
    09:00 +15°C° 0 mm 2 mps 693 mmHg 64%
    10:00 +15°C° 0.3 mm 2 mps 693 mmHg 68%
    11:00 +15°C° 0.3 mm 2 mps 693 mmHg 72%
    12:00 +15°C° 0.3 mm 2 mps 693 mmHg 77%
    13:00 +14°C° 0.8 mm 2 mps 693 mmHg 81%
    14:00 +14°C° 0.8 mm 2 mps 693 mmHg 85%
    15:00 +13°C° 0.8 mm 2 mps 693 mmHg 90%
    16:00 +12°C° 0.8 mm 2 mps 693 mmHg 92%
    17:00 +10°C° 0.8 mm 3 mps 693 mmHg 94%
    18:00 +10°C° 0.8 mm 3 mps 693 mmHg 96%
    19:00 +9°C° 0.6 mm 3 mps 693 mmHg 96%
    20:00 +7°C° 0.6 mm 3 mps 694 mmHg 95%
    21:00 +5°C° 0.6 mm 3 mps 694 mmHg 95%
    22:00 +4°C° 0.8 mm 3 mps 694 mmHg 95%
    23:00 +4°C° 0.8 mm 4 mps 694 mmHg 95%

    7 Abril, Martes

    Tiempo Temperatura Precipitaciones Viento Presión Humedad
    00:00 +3°C° 0.8 mm 4 mps 694 mmHg 95%
    01:00 +2°C° 0.6 mm 3 mps 695 mmHg 96%
    02:00 +2°C° 0.6 mm 3 mps 695 mmHg 96%
    03:00 +1°C° 0.6 mm 3 mps 695 mmHg 96%
    04:00 +1°C° 0.8 mm 3 mps 695 mmHg 96%
    05:00 +1°C° 0.8 mm 3 mps 696 mmHg 96%
    06:00 0°C° 0.8 mm 3 mps 696 mmHg 97%
    07:00 0°C° 1.1 mm 3 mps 696 mmHg 96%
    08:00 +1°C° 1.1 mm 2 mps 696 mmHg 96%
    09:00 +1°C° 1.1 mm 2 mps 696 mmHg 96%
    10:00 +1°C° 0.9 mm 2 mps 696 mmHg 96%
    11:00 +1°C° 0.9 mm 2 mps 697 mmHg 95%
    12:00 +2°C° 0.9 mm 2 mps 697 mmHg 95%
    13:00 +2°C° 0.2 mm 2 mps 696 mmHg 95%
    14:00 +2°C° 0.2 mm 2 mps 696 mmHg 94%
    15:00 +3°C° 0.2 mm 1 mps 696 mmHg 94%
    16:00 +3°C° 0.2 mm 1 mps 696 mmHg 95%
    17:00 +2°C° 0.2 mm 1 mps 696 mmHg 96%
    18:00 +2°C° 0.2 mm 1 mps 696 mmHg 97%
    19:00 +2°C° 0.2 mm 1 mps 697 mmHg 97%
    20:00 +2°C° 0.2 mm 1 mps 697 mmHg 97%
    21:00 +2°C° 0.2 mm 1 mps 698 mmHg 97%
    22:00 +2°C° 0.4 mm 1 mps 698 mmHg 97%
    23:00 +1°C° 0.4 mm 1 mps 698 mmHg 98%

    8 Abril, Miércoles

    Tiempo Temperatura Precipitaciones Viento Presión Humedad
    00:00 -1°C° 0.4 mm 2 mps 698 mmHg 98%
    01:00 -1°C° 0.4 mm 2 mps 698 mmHg 98%
    02:00 -1°C° 0.4 mm 2 mps 699 mmHg 97%
    03:00 -1°C° 0.4 mm 2 mps 699 mmHg 97%
    04:00 -2°C° 0.2 mm 2 mps 699 mmHg 97%
    05:00 -2°C° 0.2 mm 2 mps 699 mmHg 96%
    06:00 -2°C° 0.2 mm 2 mps 700 mmHg 95%
    07:00 -2°C° 0.1 mm 2 mps 700 mmHg 93%
    08:00 -1°C° 0.1 mm 2 mps 700 mmHg 91%
    09:00 +1°C° 0.1 mm 2 mps 700 mmHg 88%
    10:00 +1°C° 0.2 mm 2 mps 699 mmHg 88%
    11:00 +2°C° 0.2 mm 2 mps 699 mmHg 88%
    12:00 +2°C° 0.2 mm 2 mps 698 mmHg 88%
    13:00 +3°C° 0.1 mm 2 mps 698 mmHg 88%
    14:00 +3°C° 0.1 mm 2 mps 697 mmHg 88%
    15:00 +3°C° 0.1 mm 2 mps 696 mmHg 89%
    16:00 +3°C° 0.1 mm 2 mps 696 mmHg 90%
    17:00 +4°C° 0.1 mm 1 mps 696 mmHg 91%
    18:00 +3°C° 0.1 mm 1 mps 696 mmHg 93%
    19:00 +3°C° 0 mm 1 mps 696 mmHg 93%
    20:00 +3°C° 0 mm 1 mps 696 mmHg 94%
    21:00 +1°C° 0 mm 0 mps 696 mmHg 94%
    22:00 +1°C° 0 mm 0 mps 696 mmHg 94%
    23:00 +1°C° 0 mm 0 mps 695 mmHg 93%

    9 Abril, Jueves

    Tiempo Temperatura Precipitaciones Viento Presión Humedad
    00:00 +1°C° 0 mm 0 mps 695 mmHg 92%
    01:00 +1°C° 0 mm 0 mps 694 mmHg 92%
    02:00 +1°C° 0 mm 0 mps 694 mmHg 92%
    03:00 0°C° 0 mm 0 mps 693 mmHg 92%
    04:00 +1°C° 0 mm 0 mps 693 mmHg 91%
    05:00 +1°C° 0 mm 0 mps 693 mmHg 91%
    06:00 +1°C° 0 mm 0 mps 693 mmHg 91%
    07:00 +2°C° 0 mm 0 mps 692 mmHg 89%
    08:00 +4°C° 0 mm 1 mps 692 mmHg 88%
    09:00 +5°C° 0 mm 1 mps 692 mmHg 86%
    10:00 +5°C° 0 mm 1 mps 691 mmHg 86%
    11:00 +6°C° 0 mm 1 mps 691 mmHg 86%
    12:00 +5°C° 0 mm 2 mps 690 mmHg 86%
    13:00 +6°C° 0 mm 1 mps 690 mmHg 86%
    14:00 +6°C° 0 mm 1 mps 690 mmHg 87%
    15:00 +6°C° 0 mm 1 mps 689 mmHg 87%
    16:00 +6°C° 0 mm 1 mps 689 mmHg 88%
    17:00 +6°C° 0 mm 1 mps 689 mmHg 90%
    18:00 +6°C° 0 mm 1 mps 689 mmHg 92%
    19:00 +5°C° 0.3 mm 1 mps 689 mmHg 92%
    20:00 +5°C° 0.3 mm 1 mps 690 mmHg 92%
    21:00 +5°C° 0.3 mm 1 mps 690 mmHg 92%
    22:00 +4°C° 0.4 mm 0 mps 690 mmHg 93%
    23:00 +4°C° 0.4 mm 0 mps 690 mmHg 93%
    Mostrar más